Preview of NWS' New Version of Forecast
This preview is not operational and should not be used for support decisions.

Regional Weather Roundup (RWR)

Issued by Gray - Portland, ME (GYX)

                            
000
ASUS41 KGYX 221410
RWRGYX
WEATHER ROUNDUP FOR MAINE AND NEW HAMPSHIRE
NATIONAL WEATHER SERVICE GRAY ME
1000 AM EDT FRI MAR 22 2019

MEZ002-005-006-010-012-015-018-020-021-024-026-027-029-221500-
MAINE
  
CITY           SKY/WX    TMP DP  RH WIND       PRES   REMARKS
PORTLAND       RAIN      35  33  92 N20G37    29.26F FOG              
SANFORD        LGT SNOW  34  33  96 N21G28    29.27F FOG              
BAR HARBOR     LGT RAIN  34  33  96 NE14      29.44F                  
WISCASSET      RAIN      34  34 100 VRB6G20   29.34F FOG              
ROCKLAND       LGT RAIN  34  33  96 NE18G30   29.35F FOG              
FRYEBURG       SNOW      32  31  96 N13       29.40F VSB 1/2          
LEWISTONAUBURN LGT SNOW  32  31  96 N21G28    29.33F FOG     WCI  20  
AUGUSTA        MIX PCPN  32  31  96 N18G26    29.37F FOG              
WATERVILLE     MIX PCPN  32  30  92 N20       29.39F                  
BANGOR         FRZ RAIN  33  31  92 NE15      29.48F FOG              
GREENVILLE       N/A     30  26  85 NW7       29.47F                  
MILLINOCKET    LGT SNOW  32  25  75 NE7       29.59F VSB 3/4          
HOULTON        LGT RAIN  33  27  78 NE10      29.62F                  
PRESQUE ISLE   LGT RAIN  34  24  67 NE6       29.66F                  
FRENCHVILLE    CLOUDY    33  25  72 NE8       29.64F                  
CARIBOU        CLOUDY    35  22  58 E8        29.66F                  
$$

NHZ002-005-008-009-011-012-014-221500-
NEW HAMPSHIRE
  
CITY           SKY/WX    TMP DP  RH WIND       PRES   REMARKS
ROCHESTER      LGT RAIN  36  34  92 N20       29.27F                  
NASHUA         LGT RAIN  37  37 100 NW9       29.27F                  
MANCHESTER     LGT RAIN  38  35  89 N9        29.26F                  
CONCORD        LGT RAIN  36  35  96 N12       29.29F                  
LACONIA        FLURRIES  33  31  92 NE10G21   29.32F                  
PLYMOUTH       LGT SNOW  34  33  96 CALM      29.36F                  
BERLIN         LGT SNOW  32  30  92 N7        29.42F VSB 1            
WHITEFIELD     NOT AVBL                                               
JAFFREY        CLOUDY    34  33  96 N8        29.26F                  
KEENE          CLOUDY    37  33  85 N13       29.31F                  
LEBANON        SNOW      34  30  85 N6        29.37F VSB 1/4          
MT WASHINGTON  SNOW      21  21 100 E44G49      N/A  VSB 1/16WCI   0  
$$

VTZ005-007-008-221500-
VERMONT
  
CITY           SKY/WX    TMP DP  RH WIND       PRES   REMARKS
ST JOHNSBURY     N/A     32  32 100 MISG      29.41F                  
MONTPELIER     SNOW      32  32 100 N7        29.45F VSB 1/2          
BURLINGTON     SNOW      33  31  92 NW6       29.46F VSB 1/2          
$$

MAZ007-012-024-CTZ003-RIZ002-NYZ038-NYZ072-221500-
SOUTHERN NEW ENGLAND AND NY
  
CITY           SKY/WX    TMP DP  RH WIND       PRES   REMARKS
BOSTON         LGT RAIN  40  36  86 N29G39    29.21F FOG              
WORCESTER      CLOUDY    33  33 100 N12G25    29.23F                  
NANTUCKET      CLOUDY    41  40  96 NW9       29.16F FOG              
PROVIDENCE     LGT RAIN  39  38  96 N22       29.20F FOG              
HARTFORD       LGT RAIN  38  36  92 N13       29.30F FOG              
ALBANY         FLURRIES  37  33  85 N9        29.42F                  
NEW YORK CITY  LGT RAIN  41  36  82 NW17G26   29.33R                  
$$

ANZ081-ANZ082-ANZ150-NHZ014-MEZ023>029-221500-
COASTAL MARINE OBSERVATIONS
  
STATION/POSITION TIME  TEMP    WIND        PRES    WAVE
                       AIR SEA DIR/SP/G            HT/PER
                 (UTC) (F)     (DEG/KT/KT) (MB)    (FT/S)
MOUNT DESERT ROC 1400   37      30/ 32/ 36  994.2F
MATINICUS ROCK   1300   35      40/ 35/ 40  994.6F
ISLE OF SHOALS   1300   35      20/ 32/ 37  991.5F
JEFFREYS LEDGE   1338      39                N/A     9/ 7
CASHES LEDGE BUO 1350   39 40               987.7F  10/ 6
$$

.............KEY..............
   WCI - WIND CHILL
   TC  - TEMPERATURE IN CELSIUS
   VSB - VISIBILITY IN MILES
   HX  - HEAT INDEX
   FAIR- INDICATES FEW OR NO CLOUDS BELOW 12,000 FT, WITH NO 
         SIGNIFICANT WEATHER AND/OR OBSTRUCTIONS TO VISIBILITY.